^^
Saratoga-Weather Station Historical Data
Daily Summary for May 19, 2022 Units:  English    Metric   Both
Daily Weekly Monthly Yearly Custom
  High: Low: Average:
Temperature: 86.7 °F 60.1 °F 73 °F
Dew Point: 67.8 °F 54.9 °F 61 °F
Humidity: 85% 45% 68%
Wind Speed: 12.1mph 0mph 2.1mph
Wind Gust: 14mph - -
Wind- - SW
Pressure: 30.1 in 30 in -
Precipitation: 0 in    
Historical Graphs
 
 
Tabular Data for May 19, 2022
Time Temperature Dew Point Pressure Wind Wind Speed Wind Gust Humidity Rainfall Rate (Hourly) solar
00:03 66.6 °F 58.1 °F 30.1 in Calm     74% 0 in 0 W/m2
00:08 66.4 °F 58.3 °F 30 in Calm     75% 0 in 0 W/m2
00:13 66.4 °F 58.3 °F 30 in Calm     75% 0 in 0 W/m2
00:18 66.2 °F 58.1 °F 30 in Calm     75% 0 in 0 W/m2
00:23 66 °F 57.9 °F 30 in Calm   2 mph 75% 0 in 0 W/m2
00:28 65.8 °F 57.7 °F 30 in Calm     75% 0 in 0 W/m2
00:33 65.8 °F 58.1 °F 30 in Calm   2 mph 76% 0 in 0 W/m2
00:38 65.7 °F 57.9 °F 30 in Calm     76% 0 in 0 W/m2
00:43 65.7 °F 57.9 °F 30 in Calm     76% 0 in 0 W/m2
00:48 65.5 °F 57.7 °F 30 in Calm     76% 0 in 0 W/m2
00:53 65.3 °F 57.6 °F 30 in Calm     76% 0 in 0 W/m2
00:58 65.1 °F 57.7 °F 30 in Calm     77% 0 in 0 W/m2
01:03 64.9 °F 57.6 °F 30 in Calm     77% 0 in 0 W/m2
01:08 64.9 °F 57.6 °F 30 in Calm     77% 0 in 0 W/m2
01:13 64.8 °F 57.4 °F 30 in Calm     77% 0 in 0 W/m2
01:18 64.6 °F 57.6 °F 30 in Calm     78% 0 in 0 W/m2
01:23 64.6 °F 57.2 °F 30 in Calm   2 mph 77% 0 in 0 W/m2
01:28 64.6 °F 57.2 °F 30 in SE 0.9 mph 1 mph 77% 0 in 0 W/m2
01:33 64.6 °F 56.8 °F 30 in Calm     76% 0 in 0 W/m2
01:38 64.6 °F 56.8 °F 30 in Calm     76% 0 in 0 W/m2
01:43 64.4 °F 57 °F 30 in Calm     77% 0 in 0 W/m2
01:48 64.2 °F 56.8 °F 30 in Calm     77% 0 in 0 W/m2
01:53 64.2 °F 56.8 °F 30 in Calm     77% 0 in 0 W/m2
01:58 64 °F 56.7 °F 30 in Calm     77% 0 in 0 W/m2
02:03 63.9 °F 56.8 °F 30 in Calm     78% 0 in 0 W/m2
02:08 63.9 °F 56.8 °F 30 in Calm     78% 0 in 0 W/m2
02:13 63.7 °F 56.7 °F 30 in Calm     78% 0 in 0 W/m2
02:18 63.7 °F 56.7 °F 30 in Calm     78% 0 in 0 W/m2
02:23 63.3 °F 56.7 °F 30 in Calm     79% 0 in 0 W/m2
02:28 63.3 °F 56.7 °F 30 in Calm     79% 0 in 0 W/m2
02:33 63.1 °F 56.5 °F 30 in Calm     79% 0 in 0 W/m2
02:38 63.1 °F 56.5 °F 30 in Calm     79% 0 in 0 W/m2
02:43 63.1 °F 56.5 °F 30 in Calm     79% 0 in 0 W/m2
02:48 63 °F 56.3 °F 30 in Calm   1 mph 79% 0 in 0 W/m2
02:53 63 °F 56.7 °F 30 in SE 0.9 mph 2 mph 80% 0 in 0 W/m2
02:58 62.8 °F 56.5 °F 30 in Calm     80% 0 in 0 W/m2
03:03 62.8 °F 56.1 °F 30 in Calm     79% 0 in 0 W/m2
03:08 62.6 °F 55.9 °F 30 in Calm     79% 0 in 0 W/m2
03:13 62.4 °F 55.8 °F 30 in Calm     79% 0 in 0 W/m2
03:18 62.2 °F 55.9 °F 30 in Calm     80% 0 in 0 W/m2
03:23 62.1 °F 55.8 °F 30 in Calm     80% 0 in 0 W/m2
03:28 61.9 °F 55.6 °F 30 in Calm     80% 0 in 0 W/m2
03:33 61.9 °F 55.9 °F 30 in Calm     81% 0 in 0 W/m2
03:38 61.5 °F 55.6 °F 30 in Calm     81% 0 in 0 W/m2
03:43 61.3 °F 55.4 °F 30 in Calm     81% 0 in 0 W/m2
03:48 61.3 °F 55.4 °F 30 in Calm     81% 0 in 0 W/m2
03:53 61.3 °F 55.8 °F 30 in Calm     82% 0 in 0 W/m2
03:58 61.3 °F 55.8 °F 30 in Calm   1 mph 82% 0 in 0 W/m2
04:03 61.3 °F 55.4 °F 30 in Calm     81% 0 in 0 W/m2
04:08 61.3 °F 55.4 °F 30 in Calm   1 mph 81% 0 in 0 W/m2
04:13 61.3 °F 55.4 °F 30 in Calm     81% 0 in 0 W/m2
04:18 61.3 °F 55.4 °F 30 in Calm     81% 0 in 0 W/m2
04:23 61.3 °F 55.4 °F 30 in SE 0.9 mph 1 mph 81% 0 in 0 W/m2
04:28 61.3 °F 55.4 °F 30 in Calm     81% 0 in 0 W/m2
04:33 61.3 °F 55.4 °F 30 in Calm   1 mph 81% 0 in 0 W/m2
04:38 61.3 °F 55.4 °F 30 in Calm     81% 0 in 0 W/m2
04:43 61.2 °F 55.2 °F 30 in Calm   1 mph 81% 0 in 0 W/m2
04:48 61 °F 55 °F 30 in Calm     81% 0 in 0 W/m2
04:53 60.8 °F 55.2 °F 30 in Calm     82% 0 in 0 W/m2
04:58 60.8 °F 55.2 °F 30 in Calm     82% 0 in 0 W/m2
05:03 60.6 °F 55 °F 30 in Calm     82% 0 in 0 W/m2
05:08 60.4 °F 54.9 °F 30 in Calm     82% 0 in 0 W/m2
05:13 60.3 °F 55 °F 30 in Calm     83% 0 in 0 W/m2
05:18 60.3 °F 55 °F 30 in Calm     83% 0 in 0 W/m2
05:23 60.1 °F 54.9 °F 30 in Calm     83% 0 in 0 W/m2
05:28 60.1 °F 55.2 °F 30 in Calm     84% 0 in 0 W/m2
05:33 60.1 °F 55.2 °F 30 in Calm     84% 0 in 0 W/m2
05:38 60.1 °F 55.2 °F 30 in Calm     84% 0 in 0 W/m2
05:43 60.1 °F 55.2 °F 30 in Calm     84% 0 in 0 W/m2
05:48 60.1 °F 55.2 °F 30 in Calm     84% 0 in 0 W/m2
05:53 60.1 °F 55.2 °F 30 in Calm     84% 0 in 0 W/m2
05:58 60.3 °F 55.4 °F 30 in Calm     84% 0 in 5 W/m2
06:03 60.3 °F 55 °F 30 in Calm     83% 0 in 9 W/m2
06:08 60.3 °F 55 °F 30 in Calm     83% 0 in 12 W/m2
06:13 60.3 °F 55 °F 30 in Calm     83% 0 in 14 W/m2
06:18 60.3 °F 55.4 °F 30 in Calm     84% 0 in 16 W/m2
06:23 60.3 °F 55.4 °F 30 in Calm     84% 0 in 19 W/m2
06:28 60.3 °F 55.4 °F 30 in Calm     84% 0 in 21 W/m2
06:33 60.3 °F 55.4 °F 30 in Calm     84% 0 in 23 W/m2
06:38 60.4 °F 55.6 °F 30 in Calm     84% 0 in 26 W/m2
06:43 60.4 °F 55.6 °F 30 in Calm     84% 0 in 28 W/m2
06:48 60.4 °F 55.6 °F 30 in Calm     84% 0 in 32 W/m2
06:53 60.6 °F 56.1 °F 30 in Calm     85% 0 in 33 W/m2
06:58 60.8 °F 56.3 °F 30 in Calm     85% 0 in 42 W/m2
07:03 61 °F 56.1 °F 30 in Calm     84% 0 in 53 W/m2
07:08 61.2 °F 56.3 °F 30 in Calm     84% 0 in 53 W/m2
07:13 61.2 °F 56.3 °F 30 in Calm     84% 0 in 95 W/m2
07:18 61.5 °F 56.7 °F 30 in Calm     84% 0 in 91 W/m2
07:23 62.1 °F 56.8 °F 30 in Calm     83% 0 in 130 W/m2
07:28 63.1 °F 57.6 °F 30 in Calm     82% 0 in 141 W/m2
07:33 64 °F 57.7 °F 30 in Calm     80% 0 in 146 W/m2
07:38 64.8 °F 57.4 °F 30 in Calm     77% 0 in 171 W/m2
07:43 65.5 °F 57.7 °F 30 in Calm     76% 0 in 176 W/m2
07:48 66.4 °F 57.9 °F 30 in Calm     74% 0 in 190 W/m2
07:53 66.7 °F 57.7 °F 30 in Calm     73% 0 in 206 W/m2
07:58 67.3 °F 57.9 °F 30 in Calm   2 mph 72% 0 in 213 W/m2
08:03 67.6 °F 58.3 °F 30 in East 2 mph 2 mph 72% 0 in 244 W/m2
08:08 68.4 °F 58.3 °F 30 in ENE 2 mph 2 mph 70% 0 in 183 W/m2
08:13 68.7 °F 58.1 °F 30 in Calm   3 mph 69% 0 in 135 W/m2
08:18 68.9 °F 57.9 °F 30 in ENE 2 mph 2 mph 68% 0 in 118 W/m2
08:23 69.1 °F 58.5 °F 30 in ENE 2 mph 3 mph 69% 0 in 123 W/m2
08:28 69.1 °F 58.1 °F 30 in Calm   3 mph 68% 0 in 139 W/m2
08:33 69.3 °F 58.6 °F 30 in East 2.9 mph 3 mph 69% 0 in 156 W/m2
08:43 70 °F 59 °F 30 in NE 2 mph 3 mph 68% 0 in 188 W/m2
08:48 70.2 °F 58.6 °F 30 in NE 0.9 mph 4 mph 67% 0 in 206 W/m2
08:54 70.3 °F 58.8 °F 30 in SE 2 mph 3 mph 67% 0 in 213 W/m2
08:59 70.3 °F 58.8 °F 30 in East 2 mph 3 mph 67% 0 in 214 W/m2
09:04 70.5 °F 58.6 °F 30 in East 2.9 mph 7 mph 66% 0 in 211 W/m2
09:09 70.5 °F 58.6 °F 30 in ESE 2 mph 5 mph 66% 0 in 206 W/m2
09:14 70.7 °F 58.8 °F 30 in ENE 2 mph 6 mph 66% 0 in 197 W/m2
09:19 70.5 °F 59 °F 30 in SE 2 mph 4 mph 67% 0 in 193 W/m2
09:24 70.5 °F 59 °F 30 in East 0.9 mph 4 mph 67% 0 in 193 W/m2
09:29 70.9 °F 59.4 °F 30 in ESE 2 mph 4 mph 67% 0 in 183 W/m2
09:34 71.1 °F 59.5 °F 30 in ENE 0.9 mph 4 mph 67% 0 in 183 W/m2
09:39 71.2 °F 59.7 °F 30 in SE 2.9 mph 6 mph 67% 0 in 179 W/m2
09:44 71.4 °F 59.5 °F 30 in NE 2.9 mph 4 mph 66% 0 in 192 W/m2
09:49 71.8 °F 59.7 °F 30 in North 0.9 mph 6 mph 66% 0 in 207 W/m2
09:54 72.3 °F 59.9 °F 30 in Calm   5 mph 65% 0 in 211 W/m2
09:59 72.7 °F 60.3 °F 30 in East 2.9 mph 4 mph 65% 0 in 216 W/m2
10:04 72.7 °F 59.7 °F 30 in ENE 2.9 mph 3 mph 64% 0 in 299 W/m2
10:09 72.9 °F 60.4 °F 30 in ESE 2 mph 4 mph 65% 0 in 371 W/m2
10:14 73 °F 60.6 °F 30 in ENE 2.9 mph 3 mph 65% 0 in 504 W/m2
10:19 73.8 °F 60.8 °F 30 in East 4 mph 7 mph 64% 0 in 636 W/m2
10:24 73.9 °F 61 °F 30 in ENE 4 mph 6 mph 64% 0 in 508 W/m2
10:29 74.5 °F 61.5 °F 30 in East 2.9 mph 4 mph 64% 0 in 622 W/m2
10:34 74.5 °F 61 °F 30 in East 0.9 mph 2 mph 63% 0 in 515 W/m2
10:39 74.8 °F 61.3 °F 30 in SSW 0.9 mph 2 mph 63% 0 in 181 W/m2
10:44 75.4 °F 62.4 °F 30 in Calm   3 mph 64% 0 in 555 W/m2
10:49 76.1 °F 62.1 °F 30 in NE 0.9 mph 2 mph 62% 0 in 612 W/m2
10:54 76.6 °F 61.7 °F 30 in NE 0.9 mph 3 mph 60% 0 in 638 W/m2
10:59 77.2 °F 62.2 °F 30 in East 6.9 mph 7 mph 60% 0 in 703 W/m2
11:04 77.4 °F 62.4 °F 30 in East 2 mph 6 mph 60% 0 in 605 W/m2
11:09 77.7 °F 62.8 °F 30 in East 2.9 mph 5 mph 60% 0 in 633 W/m2
11:14 77.7 °F 62.8 °F 30 in SE 2 mph 4 mph 60% 0 in 687 W/m2
11:19 78.3 °F 63.3 °F 30 in NNE 2.9 mph 3 mph 60% 0 in 626 W/m2
11:24 79 °F 63 °F 30 in NNE 2.9 mph 4 mph 58% 0 in 640 W/m2
11:29 79.2 °F 63.1 °F 30 in North 0.9 mph 2 mph 58% 0 in 700 W/m2
11:34 79.5 °F 62.4 °F 30 in Calm   7 mph 56% 0 in 555 W/m2
11:39 79.7 °F 62.6 °F 30 in West 2.9 mph 7 mph 56% 0 in 712 W/m2
11:44 79.7 °F 63.7 °F 30 in WNW 2.9 mph 3 mph 58% 0 in 682 W/m2
11:49 79.5 °F 63 °F 30 in Calm   6 mph 57% 0 in 708 W/m2
11:54 79.9 °F 63.9 °F 30 in WNW 4 mph 7 mph 58% 0 in 598 W/m2
11:59 79.7 °F 62.6 °F 30 in West 8.1 mph 10 mph 56% 0 in 705 W/m2
12:04 79.9 °F 63.3 °F 30 in WNW 4 mph 5 mph 57% 0 in 694 W/m2
12:09 80.1 °F 64.4 °F 30 in SSW 2 mph 3 mph 59% 0 in 810 W/m2
12:14 80.2 °F 63.7 °F 30 in WSW 2 mph 8 mph 57% 0 in 795 W/m2
12:19 80.2 °F 63.7 °F 30 in West 6.9 mph 7 mph 57% 0 in 763 W/m2
12:24 80.6 °F 64 °F 30 in East 0.9 mph 3 mph 57% 0 in 680 W/m2
12:29 81.1 °F 64 °F 30 in NE 0.9 mph 7 mph 56% 0 in 668 W/m2
12:34 81.7 °F 64.4 °F 30 in NNE 4 mph 5 mph 56% 0 in 789 W/m2
12:39 81.9 °F 64.6 °F 30 in ENE 2.9 mph 8 mph 56% 0 in 659 W/m2
12:44 82.2 °F 64.9 °F 30 in WNW 2 mph 8 mph 56% 0 in 793 W/m2
12:49 82.4 °F 64.6 °F 30 in NNW 4 mph 4 mph 55% 0 in 754 W/m2
12:54 82.2 °F 65.5 °F 30 in WNW 2 mph 2 mph 57% 0 in 770 W/m2
12:59 82.2 °F 64.4 °F 30 in WSW 2.9 mph 7 mph 55% 0 in 756 W/m2
13:04 82.4 °F 65.7 °F 30 in WNW 4.9 mph 6 mph 57% 0 in 758 W/m2
13:09 82.8 °F 65.5 °F 30 in WNW 4 mph 11 mph 56% 0 in 649 W/m2
13:14 82.8 °F 65.5 °F 30 in NNW 2 mph 3 mph 56% 0 in 629 W/m2
13:19 83.3 °F 66 °F 30 in NW 4.9 mph 5 mph 56% 0 in 531 W/m2
13:24 83.3 °F 65.5 °F 30 in SW 2.9 mph 10 mph 55% 0 in 585 W/m2
13:34 82.9 °F 65.7 °F 30 in West 2 mph 5 mph 56% 0 in 652 W/m2
13:39 83.7 °F 66.4 °F 30 in West 4 mph 7 mph 56% 0 in 670 W/m2
13:44 84 °F 65.7 °F 30 in NW 4 mph 8 mph 54% 0 in 679 W/m2
13:49 83.8 °F 66 °F 30 in WSW 4.9 mph 8 mph 55% 0 in 775 W/m2
13:54 84 °F 66.2 °F 30 in SE 0.9 mph 3 mph 55% 0 in 721 W/m2
13:59 84.6 °F 66 °F 30 in WSW 2 mph 9 mph 54% 0 in 724 W/m2
14:04 84.6 °F 65.5 °F 30 in West 6.9 mph 9 mph 53% 0 in 747 W/m2
14:09 84.4 °F 65.8 °F 30 in SSW 2 mph 10 mph 54% 0 in 480 W/m2
14:14 84.2 °F 64.6 °F 30 in WSW 2.9 mph 9 mph 52% 0 in 422 W/m2
14:19 84.4 °F 64.2 °F 30 in West 12.1 mph 12 mph 51% 0 in 942 W/m2
14:24 84.6 °F 63.9 °F 30 in North 2.9 mph 6 mph 50% 0 in 837 W/m2
14:29 84.7 °F 63.5 °F 30 in West 12 mph 12 mph 49% 0 in 875 W/m2
14:34 84.7 °F 62.2 °F 30 in West 2.9 mph 7 mph 47% 0 in 626 W/m2
14:39 84.7 °F 63 °F 30 in ENE 2.9 mph 7 mph 48% 0 in 891 W/m2
14:44 85.5 °F 63.5 °F 30 in WNW 4 mph 7 mph 48% 0 in 919 W/m2
14:49 85.6 °F 63.7 °F 30 in SW 6.9 mph 10 mph 48% 0 in 819 W/m2
14:54 85.6 °F 63.1 °F 30 in WSW 4 mph 11 mph 47% 0 in 821 W/m2
14:59 85.5 °F 63.5 °F 30 in WNW 2.9 mph 4 mph 48% 0 in 213 W/m2
15:04 84.9 °F 63.7 °F 30 in SW 4 mph 11 mph 49% 0 in 390 W/m2
15:09 84.7 °F 64 °F 30 in NW 4 mph 6 mph 50% 0 in 461 W/m2
15:14 84.4 °F 63.7 °F 30 in NW 2 mph 6 mph 50% 0 in 925 W/m2
15:19 84.4 °F 63.7 °F 30 in NW 6 mph 9 mph 50% 0 in 868 W/m2
15:25 84.4 °F 63.1 °F 30 in WSW 4 mph 10 mph 49% 0 in 526 W/m2
15:30 84.2 °F 63.5 °F 30 in NW 0.9 mph 4 mph 50% 0 in 417 W/m2
15:35 84.4 °F 63.7 °F 30 in NW 2 mph 6 mph 50% 0 in 905 W/m2
15:40 84.9 °F 64.2 °F 30 in West 2.9 mph 6 mph 50% 0 in 877 W/m2
15:45 84.9 °F 64.2 °F 30 in West 0.9 mph 4 mph 50% 0 in 795 W/m2
15:50 85.5 °F 64 °F 30 in West 2 mph 6 mph 49% 0 in 802 W/m2
15:55 86 °F 63.5 °F 30 in SW 0.9 mph 3 mph 47% 0 in 782 W/m2
16:00 86.4 °F 63.7 °F 30 in NW 6 mph 7 mph 47% 0 in 768 W/m2
16:05 86.2 °F 63 °F 30 in WNW 8.9 mph 11 mph 46% 0 in 751 W/m2
16:10 86.2 °F 63 °F 30 in WSW 2.9 mph 6 mph 46% 0 in 744 W/m2
16:15 86.4 °F 63.1 °F 30 in WNW 4 mph 5 mph 46% 0 in 726 W/m2
16:20 86.2 °F 63.5 °F 30 in WNW 10.1 mph 10 mph 47% 0 in 714 W/m2
16:25 86 °F 62.8 °F 30 in West 6 mph 8 mph 46% 0 in 729 W/m2
16:30 85.8 °F 63.3 °F 30 in NNW 4.9 mph 7 mph 47% 0 in 612 W/m2
16:35 85.8 °F 63.3 °F 30 in WNW 0.9 mph 8 mph 47% 0 in 761 W/m2
16:40 86.4 °F 63.1 °F 30 in WNW 4 mph 7 mph 46% 0 in 135 W/m2
16:45 86.4 °F 63.1 °F 30 in North 8.1 mph 8 mph 46% 0 in 691 W/m2
16:50 86.2 °F 62.4 °F 30 in NNW 4.9 mph 8 mph 45% 0 in 686 W/m2
16:55 86 °F 62.8 °F 30 in WNW 2.9 mph 9 mph 46% 0 in 656 W/m2
17:00 86.2 °F 62.4 °F 30 in West 6 mph 14 mph 45% 0 in 650 W/m2
17:05 86.4 °F 63.1 °F 30 in South 2 mph 4 mph 46% 0 in 633 W/m2
17:10 86.7 °F 62.8 °F 30 in WNW 8.9 mph 9 mph 45% 0 in 622 W/m2
17:15 86.2 °F 62.4 °F 30 in WNW 6.9 mph 10 mph 45% 0 in 601 W/m2
17:20 86 °F 63.5 °F 30 in NW 6.9 mph 12 mph 47% 0 in 596 W/m2
17:30 85.8 °F 63.9 °F 30 in NW 4.9 mph 10 mph 48% 0 in 573 W/m2
17:35 85.8 °F 63.9 °F 30 in West 8.1 mph 10 mph 48% 0 in 552 W/m2
17:40 85.6 °F 63.1 °F 30 in SW 4 mph 10 mph 47% 0 in 538 W/m2
17:45 85.6 °F 63.7 °F 30 in WNW 2 mph 11 mph 48% 0 in 534 W/m2
17:50 85.8 °F 63.3 °F 30 in SW 4 mph 13 mph 47% 0 in 462 W/m2
17:55 85.3 °F 64 °F 30 in South 2.9 mph 7 mph 49% 0 in 88 W/m2
18:00 84.9 °F 63.7 °F 30 in NW 4 mph 14 mph 49% 0 in 496 W/m2
18:05 84.9 °F 64.2 °F 30 in NW 4.9 mph 9 mph 50% 0 in 476 W/m2
18:10 84.7 °F 64 °F 30 in West 6 mph 14 mph 50% 0 in 165 W/m2
18:20 84.6 °F 64.4 °F 30 in West 8.9 mph 9 mph 51% 0 in 494 W/m2
18:25 83.8 °F 63.9 °F 30 in SW 4 mph 11 mph 51% 0 in 84 W/m2
18:30 83.5 °F 64.6 °F 30 in West 6 mph 7 mph 53% 0 in 160 W/m2
18:35 82.9 °F 66.2 °F 30 in NNW 2.9 mph 10 mph 57% 0 in 132 W/m2
18:40 82.2 °F 66.4 °F 30 in WNW 6 mph 11 mph 59% 0 in 125 W/m2
18:45 81.7 °F 66.4 °F 30 in West 6 mph 10 mph 60% 0 in 139 W/m2
18:50 81.7 °F 66.4 °F 30 in West 4 mph 11 mph 60% 0 in 137 W/m2
18:55 81.3 °F 67.1 °F 30 in West 6 mph 11 mph 62% 0 in 104 W/m2
19:00 81.3 °F 67.1 °F 30 in WNW 4.9 mph 8 mph 62% 0 in 81 W/m2
19:05 81.1 °F 66.9 °F 30 in WNW 10.1 mph 11 mph 62% 0 in 84 W/m2
19:10 81.3 °F 67.1 °F 30 in WNW 4.9 mph 7 mph 62% 0 in 76 W/m2
19:15 81.5 °F 67.3 °F 30 in WNW 8.1 mph 8 mph 62% 0 in 63 W/m2
19:20 81 °F 66.7 °F 30 in WNW 6.9 mph 10 mph 62% 0 in 62 W/m2
19:25 80.6 °F 66.9 °F 30 in SW 4.9 mph 8 mph 63% 0 in 44 W/m2
19:30 80.2 °F 66.9 °F 30 in NW 2.9 mph 5 mph 64% 0 in 49 W/m2
19:35 80.2 °F 67.5 °F 30 in West 6.9 mph 12 mph 65% 0 in 63 W/m2
19:40 80.2 °F 67.8 °F 30 in NNW 2 mph 5 mph 66% 0 in 58 W/m2
19:45 80.2 °F 67.8 °F 30 in WNW 2.9 mph 12 mph 66% 0 in 54 W/m2
19:50 80.1 °F 67.6 °F 30 in West 2.9 mph 8 mph 66% 0 in 51 W/m2
19:55 79.7 °F 67.3 °F 30 in WNW 2.9 mph 11 mph 66% 0 in 49 W/m2
20:00 79.3 °F 67.5 °F 30 in WNW 4 mph 6 mph 67% 0 in 62 W/m2
20:05 79 °F 67.5 °F 30 in WSW 4.9 mph 6 mph 68% 0 in 39 W/m2
20:10 78.6 °F 67.1 °F 30.1 in WSW 4 mph 6 mph 68% 0 in 30 W/m2
20:15 78.3 °F 66.7 °F 30.1 in West 4 mph 6 mph 68% 0 in 30 W/m2
20:20 78.1 °F 67.1 °F 30.1 in NNE 11 mph 11 mph 69% 0 in 25 W/m2
20:25 77.9 °F 66.9 °F 30.1 in West 2.9 mph 7 mph 69% 0 in 32 W/m2
20:30 77.7 °F 66.7 °F 30.1 in West 4 mph 10 mph 69% 0 in 33 W/m2
20:35 77.5 °F 66.6 °F 30.1 in West 2 mph 4 mph 69% 0 in 26 W/m2
20:40 77.4 °F 66.4 °F 30.1 in West 2 mph 7 mph 69% 0 in 28 W/m2
20:45 77.2 °F 66.2 °F 30.1 in NNW 4 mph 6 mph 69% 0 in 25 W/m2
20:50 77 °F 66.4 °F 30.1 in West 2.9 mph 8 mph 70% 0 in 21 W/m2
20:55 76.8 °F 66.2 °F 30.1 in NW 0.9 mph 2 mph 70% 0 in 18 W/m2
21:00 76.6 °F 66.2 °F 30.1 in NW 4 mph 8 mph 70% 0 in 16 W/m2
21:05 76.5 °F 67.1 °F 30.1 in NNW 4.9 mph 5 mph 73% 0 in 11 W/m2
21:10 75.7 °F 66.9 °F 30.1 in ENE 0.9 mph 4 mph 74% 0 in 7 W/m2
21:15 75.2 °F 66.4 °F 30.1 in NW 4 mph 4 mph 74% 0 in 0 W/m2
21:20 74.8 °F 66 °F 30.1 in ESE 2 mph 3 mph 74% 0 in 0 W/m2
21:25 74.5 °F 66 °F 30.1 in ENE 0.9 mph 5 mph 75% 0 in 0 W/m2
21:30 73.9 °F 65.5 °F 30.1 in WNW 2 mph 5 mph 75% 0 in 0 W/m2
21:35 73.6 °F 64.8 °F 30.1 in Calm   5 mph 74% 0 in 0 W/m2
21:40 73 °F 64.6 °F 30.1 in Calm   5 mph 75% 0 in 0 W/m2
21:45 72.7 °F 64.2 °F 30.1 in South 0.9 mph 5 mph 75% 0 in 0 W/m2
21:50 72.1 °F 63.3 °F 30.1 in WSW 0.9 mph 3 mph 74% 0 in 0 W/m2
21:55 71.8 °F 63.5 °F 30.1 in ENE 0.9 mph 4 mph 75% 0 in 0 W/m2
22:00 71.6 °F 63.3 °F 30.1 in ENE 0.9 mph 1 mph 75% 0 in 0 W/m2
22:05 71.4 °F 63.1 °F 30.1 in SE 2 mph 2 mph 75% 0 in 0 W/m2
22:10 71.2 °F 63 °F 30.1 in Calm   3 mph 75% 0 in 0 W/m2
22:15 71.1 °F 63.1 °F 30.1 in NNW 0.9 mph 1 mph 76% 0 in 0 W/m2
22:20 70.9 °F 63 °F 30.1 in Calm   1 mph 76% 0 in 0 W/m2
22:25 70.7 °F 62.8 °F 30.1 in Calm   3 mph 76% 0 in 0 W/m2
22:31 70.5 °F 62.6 °F 30.1 in Calm   2 mph 76% 0 in 0 W/m2
22:36 70.3 °F 62.4 °F 30.1 in Calm   3 mph 76% 0 in 0 W/m2
22:41 70.2 °F 62.6 °F 30.1 in ESE 0.9 mph 1 mph 77% 0 in 0 W/m2
22:51 70 °F 62.4 °F 30.1 in Calm     77% 0 in 0 W/m2
22:56 69.8 °F 62.2 °F 30.1 in Calm     77% 0 in 0 W/m2
23:01 69.6 °F 62.4 °F 30.1 in ENE 0.9 mph 2 mph 78% 0 in 0 W/m2
23:06 69.4 °F 62.2 °F 30.1 in Calm   3 mph 78% 0 in 0 W/m2
23:11 69.4 °F 62.6 °F 30.1 in Calm   3 mph 79% 0 in 0 W/m2
23:16 69.3 °F 62.4 °F 30.1 in ENE 0.9 mph 1 mph 79% 0 in 0 W/m2
23:21 69.1 °F 62.2 °F 30.1 in Calm     79% 0 in 0 W/m2
23:26 68.7 °F 62.2 °F 30.1 in Calm     80% 0 in 0 W/m2
23:31 68.4 °F 61.9 °F 30.1 in Calm   2 mph 80% 0 in 0 W/m2
23:36 68.2 °F 62.1 °F 30.1 in Calm     81% 0 in 0 W/m2
23:41 67.8 °F 61.7 °F 30.1 in Calm     81% 0 in 0 W/m2
23:46 67.6 °F 61.9 °F 30.1 in Calm     82% 0 in 0 W/m2
23:51 67.5 °F 62.1 °F 30.1 in Calm     83% 0 in 0 W/m2
23:56 67.3 °F 61.9 °F 30.1 in Calm     83% 0 in 0 W/m2
Juneau County Weather
Compliments of Weather Underground - 4 mb